Weather in Călăraşi

Romania     44°12′30″N   27°19′05″E
temp.,
°C
wind,
m/s
gust,
m/s
humid.,
%
clouds,
%
prec.,
mm/h
press.,
hPa
HPBL,
m
24 may, tue
tue2400:00+13ene33639 0.0 101224
03:00+12e226941 0.0 101314
06:00+11ene227535 0.0 101342
09:00+17ene235825 0.0 1014509
12:00+21e3244100 0.0 10141316
15:00+23ese2239100 0.0 10131921
18:00+23e3341100 0.0 10131530
21:00+16sse4969100 0.0 1014197
25 may, wed
wed2500:00+14sse4972100 0.0 1016186
03:00+15se386990 0.0 1016248
06:00+13ese35785 0.0 1016110
09:00+20se585470 0.0 1017588
12:00+24sse674422 0.0 10171392
15:00+26sse664314 0.0 10161739
18:00+25sse764855 0.0 10161110
21:00+17sse611636 0.1 1017285
26 may, thu
thu2600:00+14sse41078100 0.2 1018252
03:00+13sse35816 0.2 101788
06:00+14s22845 0.0 101740
09:00+21wsw467532 0.6 1018408
12:00+28w45525 0.0 10171321
15:00+30nw5641100 0.0 10172165
18:00+27ene4349100 0.3 10171017
21:00+18ese3578100 4.9 101880
27 may, fri
fri2700:00+17nne2291100 0.1 101934
03:00+17ne119299 0.1 101911
06:00+16se119312 0.0 101911
09:00+22ese11714 0.0 1019360
12:00+27ese11400 0.0 10181475
15:00+29s33363 0.0 10162232
18:00+29wsw02388 0.0 10131881
21:00+21s5117898 1.1 1013240
28 may, sat
sat2800:00+18s228490 1.4 101234
03:00+17s358257 1.9 101182
06:00+17s348593 0.0 101063
09:00+22w357233 1.0 1011404
12:00+27wnw345099 0.0 10101393
15:00+28n444998 0.0 10101575
18:00+26ne6557100 0.6 1008696
21:00+19nnw3887100 9.8 1010288